Total_Precipitation_Accumulation
0.00 0.00 0.00 0.00 0.00 0.00 0.00 0.00 0.00 0.00 0.00 0.00 0.00 0.00 0.00 0.00 0.00 0.00 0.00 0.00 0.00 0.00 0.00 0.00 0.00 0.00 0.00 0.00 0.00 0.00 0.00 0.00 0.00 0.00 0.00 0.00 0.00 0.00 0.00 0.00 0.00 0.00 0.00 0.00 0.00 0.00 0.00 -0.00 -0.00 0.00 -0.00 -0.00 -0.01 -0.01 -0.02 -0.03 -0.03 -0.03 -0.06 -0.11 -0.11 -0.16 -0.15 -0.14 -0.14 -0.08 -0.10 -0.06 -0.05 -0.05 -0.07 -0.03 -0.01 -0.01 -0.03 -0.06 -0.05 -0.05 0.01 0.01 0.01 0.00 0.02 0.05 0.05 0.06
-0.00 0.00 0.00 0.00 0.00 0.00 0.00 0.00 0.00 0.00 0.00 0.00 0.00 0.00 0.00 0.00 0.00 0.00 0.00 0.00 0.00 0.00 0.00 0.00 0.00 0.00 0.00 0.00 0.00 0.00 0.00 0.00 0.00 0.00 0.00 0.00 0.00 0.00 0.00 0.00 0.00 0.00 0.00 0.00 0.00 0.00 0.00 -0.00 -0.00 -0.00 -0.01 -0.01 -0.01 -0.01 -0.02 -0.02 -0.02 -0.04 -0.02 -0.09 -0.09 -0.04 -0.05 -0.07 -0.07 -0.06 -0.05 -0.04 -0.03 -0.03 -0.03 -0.03 -0.04 -0.04 0.03 0.01 0.04 0.04 0.03 -0.00 -0.00 0.04 0.05 0.09 0.09 0.10
-0.00 -0.00 -0.00 0.00 0.00 -0.00 0.00 0.00 0.00 0.00 0.00 0.00 0.00 0.00 0.00 0.00 0.00 0.00 0.00 0.00 0.00 0.00 0.00 0.00 0.00 0.00 0.00 0.00 0.00 0.00 0.00 0.00 0.00 0.00 0.00 0.00 0.00 0.00 0.00 0.00 0.00 0.00 0.00 0.00 0.00 0.00 0.00 -0.00 -0.00 -0.00 -0.01 -0.01 -0.01 -0.01 -0.00 -0.01 -0.01 -0.02 -0.00 -0.01 -0.01 -0.01 -0.02 -0.03 -0.03 -0.05 -0.05 -0.03 -0.03 -0.03 -0.02 -0.02 -0.00 -0.00 0.06 0.07 0.08 0.08 0.04 0.05 0.05 0.11 0.10 0.11 0.11 0.14
-0.00 -0.00 -0.00 0.00 0.00 0.00 0.00 0.00 0.00 0.00 0.00 0.00 0.00 0.00 0.00 0.00 0.00 0.00 0.00 0.00 0.00 0.00 0.00 0.00 0.00 0.00 0.00 0.00 0.00 0.00 0.00 0.00 0.00 0.00 0.00 0.00 0.00 0.00 0.00 0.00 0.00 0.00 0.00 -0.00 -0.00 -0.00 -0.00 -0.00 -0.00 -0.00 -0.00 -0.00 -0.00 -0.00 -0.00 -0.00 -0.00 -0.00 -0.00 -0.00 -0.00 -0.01 -0.01 -0.02 -0.02 -0.01 -0.00 -0.00 -0.05 -0.05 -0.06 0.05 0.06 0.06 0.03 0.02 0.03 0.03 -0.00 0.01 0.01 0.05 0.10 0.08 0.08 0.13
0.00 0.00 -0.00 -0.00 -0.00 0.00 0.00 0.00 0.00 0.00 0.00 0.00 -0.00 -0.00 0.00 0.00 0.00 0.00 0.00 0.00 0.00 0.00 0.00 0.00 0.00 0.00 0.00 0.00 0.00 0.00 0.00 0.00 0.00 0.00 0.00 0.00 0.00 0.00 0.00 0.00 0.00 0.00 0.00 0.00 0.00 -0.00 -0.00 -0.00 -0.00 -0.00 0.00 0.00 -0.00 -0.00 -0.00 -0.00 -0.00 -0.00 -0.01 -0.01 -0.01 -0.01 -0.01 -0.01 -0.01 -0.02 -0.02 -0.06 -0.03 -0.03 -0.01 0.01 -0.00 -0.00 0.03 0.03 0.02 0.02 0.05 0.04 0.04 0.09 0.07 0.08 0.08 0.08
-0.00 -0.00 -0.00 -0.00 -0.00 -0.00 0.00 -0.00 0.00 0.00 -0.00 -0.00 -0.00 -0.00 -0.00 -0.00 -0.00 -0.00 -0.00 0.00 0.00 0.00 0.00 0.00 0.00 0.00 0.00 0.00 0.00 0.00 0.00 0.00 0.00 0.00 0.00 0.00 0.00 0.00 0.00 0.00 0.00 0.00 0.00 0.00 0.00 0.00 0.00 0.00 0.00 0.00 -0.00 -0.00 -0.00 -0.00 -0.01 -0.01 -0.01 -0.01 -0.01 -0.01 -0.01 -0.01 -0.06 -0.05 -0.05 -0.08 -0.07 -0.03 -0.00 -0.00 0.00 -0.01 0.00 0.00 0.03 0.02 0.05 0.05 0.04 0.08 0.08 0.11 0.13 0.14 0.14 0.17
-0.00 -0.00 -0.00 -0.00 -0.00 -0.00 0.00 0.00 -0.00 -0.00 -0.00 -0.00 -0.01 -0.01 -0.01 -0.00 -0.01 -0.01 -0.00 -0.00 -0.00 0.00 0.00 0.00 0.00 0.00 0.00 0.00 0.00 0.00 0.00 0.00 0.00 0.00 0.00 0.00 0.00 0.00 0.00 0.00 0.00 0.00 0.00 0.00 0.00 0.00 0.00 0.00 0.00 0.00 0.00 -0.00 -0.00 -0.00 -0.00 -0.00 -0.00 -0.00 -0.01 -0.03 -0.03 -0.04 -0.06 -0.07 -0.07 -0.08 -0.07 -0.04 -0.05 -0.05 -0.06 0.00 -0.00 -0.00 -0.02 0.02 0.01 0.01 0.05 0.08 0.08 0.12 0.15 0.18 0.18 0.22
0.01 -0.00 0.00 -0.00 -0.00 -0.00 -0.00 -0.00 -0.01 -0.01 -0.01 -0.01 -0.01 -0.01 -0.01 -0.01 -0.02 -0.02 -0.02 -0.01 -0.01 -0.01 -0.00 -0.00 -0.00 0.00 0.00 0.00 0.00 0.00 0.00 0.00 0.00 0.00 0.00 0.00 0.00 0.00 0.00 0.00 0.00 0.00 0.00 0.00 0.00 0.00 0.00 0.00 0.00 0.00 0.00 0.00 -0.00 -0.00 0.00 -0.00 -0.00 0.00 0.00 0.00 0.00 -0.02 -0.00 -0.00 -0.00 0.00 0.00 0.00 0.00 0.00 0.01 0.01 0.00 0.00 0.00 -0.01 0.00 0.00 0.00 0.05 0.05 0.08 0.12 0.18 0.18 0.23
0.01 0.01 0.00 -0.00 -0.00 -0.01 -0.00 -0.00 -0.00 -0.00 -0.00 -0.01 -0.01 -0.01 -0.02 -0.01 -0.02 -0.02 -0.02 -0.02 -0.02 -0.01 -0.01 -0.00 -0.00 0.00 0.00 0.00 0.00 0.00 0.00 0.00 0.00 0.00 0.00 0.00 0.00 0.00 0.00 0.00 0.00 0.00 0.00 0.00 0.00 0.00 0.00 -0.00 -0.00 -0.00 0.00 -0.00 0.00 0.00 0.00 0.00 0.00 -0.00 -0.00 -0.00 -0.00 -0.00 -0.00 0.00 0.00 0.00 0.00 0.00 0.00 0.00 0.00 0.00 0.00 0.00 -0.02 0.00 -0.03 -0.03 -0.02 -0.00 -0.00 0.04 0.07 0.18 0.18 0.22
0.01 0.00 -0.01 -0.01 -0.01 -0.01 -0.00 -0.00 -0.01 -0.01 -0.01 -0.01 -0.02 -0.02 -0.02 -0.02 -0.02 -0.02 -0.01 -0.01 -0.01 -0.01 -0.00 -0.00 -0.00 -0.00 0.00 0.00 0.00 0.00 0.00 0.00 0.00 0.00 0.00 0.00 0.00 0.00 0.00 0.00 0.00 0.00 0.00 0.00 0.00 0.00 0.00 0.00 0.00 0.00 0.00 0.00 0.00 0.00 -0.00 -0.00 -0.00 -0.00 -0.00 -0.00 -0.00 0.00 -0.00 -0.00 -0.00 -0.00 0.00 -0.00 -0.00 -0.00 -0.00 0.00 0.00 0.00 0.00 0.00 0.00 0.00 0.01 0.04 0.04 0.05 0.11 0.11 0.11 0.19
0.00 -0.01 -0.02 -0.02 -0.02 -0.02 -0.01 -0.02 -0.02 -0.02 -0.02 -0.02 -0.02 -0.02 -0.02 -0.02 -0.03 -0.03 -0.02 -0.01 -0.01 -0.01 -0.00 -0.00 -0.00 -0.00 -0.00 0.00 0.00 0.00 0.00 0.00 0.00 0.00 0.00 0.00 0.00 0.00 0.00 0.00 0.00 0.00 0.00 0.00 0.00 0.00 0.00 0.00 0.00 0.00 0.00 0.00 0.00 0.00 -0.00 -0.00 -0.00 -0.00 -0.00 -0.00 -0.00 -0.00 -0.00 0.00 0.00 -0.00 0.00 0.00 0.00 0.00 -0.00 -0.00 0.00 0.00 0.00 -0.00 0.00 0.00 0.01 0.04 0.04 0.08 0.11 0.14 0.14 0.19
-0.01 -0.02 -0.02 -0.02 -0.02 -0.02 -0.02 -0.02 -0.03 -0.03 -0.03 -0.03 -0.01 -0.01 -0.02 -0.02 -0.03 -0.03 -0.01 0.01 0.01 -0.00 -0.00 -0.00 -0.00 -0.00 0.00 0.00 0.00 0.00 0.00 -0.00 0.00 0.00 0.00 0.00 0.00 0.00 0.00 0.00 0.00 0.00 0.00 0.00 0.00 0.00 0.00 0.00 0.00 0.00 0.00 0.00 0.00 0.00 0.00 -0.00 -0.00 -0.00 -0.00 -0.00 -0.00 -0.00 -0.00 -0.00 -0.00 0.00 0.00 0.00 0.00 0.00 0.00 0.00 0.00 0.00 0.00 0.01 0.00 0.00 -0.01 0.01 0.01 0.05 0.09 0.11 0.11 0.12
-0.02 -0.01 -0.00 -0.01 -0.01 -0.01 -0.01 -0.02 -0.04 -0.04 -0.04 -0.06 -0.04 -0.04 -0.03 -0.04 -0.02 -0.02 0.00 0.01 0.01 -0.00 -0.00 -0.01 -0.01 -0.00 -0.00 -0.00 -0.00 -0.00 -0.00 -0.00 -0.00 -0.00 0.00 0.00 0.00 0.00 0.00 -0.00 -0.00 0.00 0.00 0.00 0.00 0.00 0.00 0.00 0.00 0.00 0.00 -0.00 -0.00 -0.00 -0.00 0.00 0.00 -0.00 -0.00 -0.00 -0.00 -0.00 -0.00 -0.00 -0.00 0.00 -0.00 -0.00 -0.00 -0.00 0.00 -0.00 -0.00 -0.00 0.00 -0.03 -0.01 -0.01 -0.01 -0.00 -0.00 0.05 0.10 0.12 0.12 0.07
0.02 0.04 0.06 0.04 0.04 0.02 -0.02 -0.03 -0.04 -0.04 -0.06 -0.05 -0.05 -0.05 -0.04 -0.04 -0.01 -0.01 0.00 0.01 0.01 -0.00 -0.01 -0.01 -0.01 -0.00 -0.00 -0.00 -0.00 -0.00 -0.00 -0.00 -0.00 -0.00 -0.00 -0.00 0.00 0.00 -0.00 -0.00 -0.00 0.00 0.00 0.00 0.00 0.00 0.00 0.00 0.00 0.00 0.00 0.00 -0.00 -0.00 -0.00 -0.00 -0.00 -0.00 -0.00 -0.00 -0.00 -0.00 -0.00 -0.00 -0.00 -0.00 -0.00 -0.00 -0.03 -0.03 -0.04 -0.04 -0.07 -0.07 -0.07 -0.05 -0.05 -0.05 -0.04 -0.07 -0.07 -0.04 -0.05 -0.02 -0.02 0.03
0.07 0.12 0.14 0.10 0.10 0.04 -0.03 -0.04 -0.04 -0.04 -0.05 -0.05 -0.04 -0.04 -0.04 -0.03 -0.02 -0.02 -0.01 -0.00 -0.00 -0.01 -0.01 -0.01 -0.01 -0.00 -0.00 -0.00 -0.00 -0.00 -0.00 -0.01 -0.01 -0.01 -0.00 -0.00 -0.00 -0.00 -0.00 -0.00 -0.00 -0.00 -0.00 0.00 0.00 0.00 0.00 0.00 0.00 0.00 0.00 0.00 -0.00 -0.00 -0.00 -0.00 -0.00 -0.00 -0.00 -0.00 -0.00 -0.00 -0.00 -0.00 -0.00 -0.00 -0.02 -0.02 -0.08 -0.08 -0.09 -0.10 -0.04 -0.04 -0.04 -0.04 -0.04 -0.04 -0.06 -0.10 -0.10 -0.13 -0.07 -0.01 -0.01 0.03
0.10 0.18 0.18 0.11 0.11 0.04 -0.00 -0.04 -0.04 -0.04 -0.04 -0.03 -0.03 -0.03 -0.02 -0.02 -0.01 -0.01 -0.00 -0.00 -0.00 0.00 0.01 0.02 0.02 0.02 -0.00 -0.00 -0.00 -0.00 -0.00 -0.01 -0.01 -0.01 -0.01 -0.00 -0.00 -0.00 -0.00 -0.00 -0.00 -0.00 -0.00 -0.00 -0.00 0.00 0.00 0.00 0.00 0.00 0.00 0.00 0.00 0.00 0.00 -0.00 -0.00 -0.00 -0.00 -0.00 -0.00 -0.00 -0.01 -0.01 -0.01 -0.02 -0.02 -0.02 -0.05 -0.05 -0.06 -0.06 -0.05 -0.05 -0.05 -0.10 -0.09 -0.09 -0.11 -0.10 -0.10 -0.07 -0.03 -0.01 -0.01 0.05
0.15 0.23 0.18 0.11 0.11 0.06 -0.02 -0.04 -0.03 -0.03 -0.02 -0.00 -0.01 -0.01 -0.01 -0.00 -0.00 -0.00 0.01 0.01 0.01 0.01 0.03 0.04 0.04 0.05 0.03 0.00 -0.00 -0.00 -0.00 -0.00 -0.00 -0.00 -0.00 -0.00 -0.00 -0.00 -0.00 -0.00 -0.00 -0.00 -0.00 0.00 0.00 0.00 0.00 0.00 0.00 0.00 0.00 0.00 0.00 0.00 0.00 0.00 0.00 -0.00 -0.00 -0.00 -0.00 -0.00 -0.00 -0.01 -0.01 -0.01 -0.01 -0.03 -0.03 -0.03 -0.02 -0.05 -0.01 -0.01 -0.06 -0.10 -0.03 -0.03 -0.03 -0.03 -0.03 -0.03 -0.02 -0.00 -0.00 0.00
0.24 0.17 0.14 0.09 0.09 0.03 0.01 0.02 0.01 0.01 0.00 0.02 0.00 0.00 -0.00 -0.01 -0.00 -0.00 0.01 0.02 0.02 0.04 0.03 0.04 0.04 0.06 0.02 0.01 -0.00 -0.00 -0.00 -0.00 0.00 0.00 0.00 0.00 0.00 0.00 -0.00 -0.00 -0.00 -0.00 -0.00 0.00 0.00 0.00 0.00 0.00 0.00 0.00 0.00 0.00 0.00 0.00 0.00 0.00 0.00 0.00 0.00 -0.00 -0.00 -0.00 -0.00 -0.00 -0.00 -0.01 -0.02 -0.03 -0.03 -0.03 -0.01 -0.01 0.00 0.00 -0.02 -0.04 -0.02 -0.02 -0.02 -0.03 -0.03 -0.04 -0.04 -0.02 -0.02 0.02
0.27 0.25 0.24 0.26 0.26 0.16 0.05 0.03 0.02 0.02 0.02 -0.00 -0.01 -0.01 -0.01 -0.01 0.00 0.00 0.02 0.01 0.01 0.03 0.03 0.05 0.05 0.03 0.01 0.00 -0.00 -0.00 -0.00 0.01 0.01 0.01 0.01 -0.00 -0.00 -0.00 0.00 -0.00 -0.00 -0.00 0.00 0.00 0.00 0.00 0.00 0.00 0.00 0.00 0.00 0.00 0.00 0.00 0.00 -0.00 -0.00 -0.00 -0.00 -0.00 -0.00 -0.00 -0.00 -0.01 -0.01 -0.01 -0.01 -0.01 -0.02 -0.02 -0.01 -0.01 -0.00 -0.00 0.00 -0.02 -0.04 -0.04 -0.04 -0.02 -0.02 -0.02 -0.02 -0.00 -0.00 -0.01
0.35 0.37 0.33 0.29 0.29 0.20 0.21 0.09 0.03 0.03 0.02 -0.00 0.03 0.03 0.03 0.00 0.03 0.03 0.02 0.01 0.01 0.02 0.04 0.07 0.07 0.04 0.02 0.01 -0.01 -0.01 -0.00 0.02 0.03 0.03 0.01 -0.00 -0.00 -0.00 0.00 -0.00 -0.00 -0.00 0.00 0.00 0.00 0.00 0.00 0.00 0.00 0.00 0.00 0.00 0.00 0.00 -0.00 0.00 0.00 0.00 -0.00 -0.00 -0.00 -0.00 -0.00 -0.00 -0.00 -0.01 -0.00 -0.01 -0.01 -0.01 -0.01 -0.01 -0.01 -0.01 -0.01 -0.04 -0.03 -0.03 -0.03 0.00 0.00 0.00 0.00 -0.06 -0.06 -0.00
0.50 0.24 0.13 0.21 0.21 0.30 0.20 0.06 0.02 0.02 0.02 0.05 0.06 0.06 0.05 0.03 0.07 0.07 0.04 0.04 0.04 0.04 0.06 0.07 0.07 0.04 0.01 0.00 -0.01 -0.01 -0.01 -0.00 0.04 0.04 0.05 0.02 -0.00 -0.00 -0.00 -0.00 -0.00 -0.00 -0.00 0.00 0.00 0.00 0.00 0.00 0.00 0.00 0.00 0.00 0.00 0.00 0.00 0.00 0.00 0.00 0.00 0.00 0.00 0.00 -0.00 -0.00 -0.00 -0.00 -0.01 -0.01 -0.01 -0.01 -0.02 -0.02 -0.01 -0.01 -0.00 0.00 0.01 0.01 0.02 -0.14 -0.14 -0.13 -0.09 -0.14 -0.14 -0.14
0.68 0.15 0.07 0.15 0.15 0.31 0.10 0.05 0.04 0.04 0.05 0.12 0.18 0.18 0.15 0.11 0.23 0.23 0.16 0.11 0.11 0.08 0.05 0.04 0.04 0.02 0.01 0.00 -0.01 -0.01 -0.01 0.02 0.08 0.08 0.07 0.06 -0.00 -0.00 -0.00 -0.00 -0.00 -0.00 -0.00 -0.00 -0.00 0.00 0.00 0.00 0.00 0.00 0.00 0.00 0.00 0.00 0.00 0.00 0.00 0.00 0.00 -0.00 -0.00 -0.00 -0.00 -0.00 -0.00 -0.00 -0.01 -0.01 -0.02 -0.02 -0.01 -0.01 -0.02 -0.02 -0.01 0.00 -0.20 -0.20 -0.15 -0.13 -0.13 -0.16 -0.16 -0.00 -0.00 -0.07
0.37 0.16 0.09 0.06 0.06 0.14 0.09 0.07 0.05 0.05 0.06 0.20 0.27 0.27 0.26 0.27 0.22 0.22 0.13 0.10 0.10 0.08 0.07 0.05 0.05 0.02 0.02 0.01 -0.00 -0.00 0.01 0.05 0.11 0.11 0.15 0.07 0.00 0.00 -0.00 0.00 0.00 -0.00 -0.00 0.00 0.00 0.00 0.00 0.00 0.00 0.00 0.00 0.00 0.00 0.00 0.00 0.00 0.00 0.00 0.00 -0.00 -0.00 -0.00 -0.00 -0.01 -0.01 -0.01 -0.00 -0.01 -0.01 -0.01 -0.02 -0.02 -0.16 -0.16 -0.16 -0.17 -0.09 -0.09 -0.10 -0.13 -0.13 -0.03 -0.02 0.04 0.04 0.04
0.04 0.08 0.07 0.06 0.06 0.07 0.14 0.13 0.09 0.09 0.08 0.25 0.26 0.26 0.25 0.25 0.10 0.10 0.09 0.09 0.09 0.10 0.08 0.05 0.05 0.03 0.07 0.04 0.03 0.03 0.03 0.02 0.08 0.08 0.18 0.04 0.00 0.00 0.00 0.00 0.00 0.00 0.00 0.00 0.00 0.00 0.00 0.00 0.00 0.00 0.00 0.00 0.00 0.00 0.00 -0.00 -0.00 -0.00 -0.00 -0.00 -0.00 -0.00 -0.00 -0.00 -0.00 -0.00 -0.01 -0.01 -0.02 -0.02 -0.08 -0.10 -0.11 -0.11 -0.06 -0.07 -0.03 -0.03 -0.05 -0.05 -0.05 -0.04 -0.02 0.02 0.02 0.04
0.01 0.10 0.12 0.13 0.13 0.13 0.14 0.14 0.14 0.14 0.16 0.19 0.16 0.16 0.14 0.10 0.09 0.09 0.09 0.10 0.10 0.19 0.18 0.19 0.19 0.16 0.11 0.08 0.07 0.07 0.03 0.03 0.10 0.10 0.25 0.14 0.03 0.03 0.00 0.00 0.00 0.00 0.00 -0.00 -0.00 0.00 0.00 0.00 0.00 0.00 0.00 0.00 0.00 0.00 0.00 -0.00 -0.00 -0.00 -0.00 -0.00 -0.00 -0.00 -0.00 -0.00 -0.00 -0.00 -0.01 -0.02 -0.05 -0.05 -0.01 -0.03 -0.04 -0.04 -0.02 -0.02 -0.02 -0.02 -0.02 -0.03 -0.03 -0.04 -0.04 -0.09 -0.09 -0.03
-0.03 0.14 0.16 0.15 0.15 0.14 0.11 0.20 0.21 0.21 0.21 0.30 0.25 0.25 0.18 0.12 0.23 0.23 0.21 0.18 0.18 0.30 0.39 0.38 0.38 0.24 0.14 0.13 0.07 0.07 0.02 0.04 0.08 0.08 0.17 0.09 0.03 0.03 0.00 0.00 0.00 0.00 0.00 0.00 0.00 0.00 0.00 -0.00 -0.00 -0.00 0.00 0.00 0.00 0.00 0.00 0.00 0.00 0.00 0.00 0.00 0.00 -0.00 -0.00 -0.00 -0.00 -0.00 -0.00 -0.00 -0.00 -0.00 -0.00 -0.00 -0.01 -0.01 -0.02 -0.02 -0.03 -0.03 -0.02 -0.02 -0.02 -0.14 -0.15 -0.13 -0.13 -0.12
-0.43 -0.38 -0.14 0.04 0.04 0.07 0.04 0.07 0.13 0.13 0.22 0.29 0.33 0.33 0.32 0.30 0.77 0.77 0.52 0.35 0.35 0.46 0.61 0.51 0.51 0.32 0.11 0.11 0.08 0.08 0.02 0.03 0.05 0.05 0.09 0.07 0.02 0.02 0.00 0.00 0.00 0.00 0.00 -0.00 -0.00 -0.00 -0.00 -0.00 -0.00 -0.00 0.00 0.00 0.00 0.00 0.00 0.00 0.00 0.00 0.00 -0.00 -0.00 -0.00 -0.00 -0.00 -0.00 -0.00 -0.00 -0.00 -0.00 -0.00 -0.01 -0.01 -0.01 -0.01 -0.03 -0.04 -0.10 -0.10 -0.11 -0.12 -0.12 -0.10 -0.13 -0.09 -0.09 0.00
-0.38 -0.52 -0.42 -0.15 -0.15 -0.13 0.01 0.06 0.10 0.10 0.18 0.24 0.43 0.43 0.69 0.81 1.12 1.12 0.73 0.45 0.45 0.59 0.49 0.36 0.36 0.20 0.11 0.08 0.04 0.04 0.02 0.02 0.01 0.01 0.02 0.04 0.07 0.07 0.02 0.00 0.00 0.00 0.00 0.00 0.00 0.00 -0.00 0.00 0.00 -0.00 0.00 0.00 0.00 0.00 0.00 0.00 0.00 0.00 -0.00 0.00 0.00 -0.00 -0.00 -0.00 -0.00 -0.00 -0.00 -0.00 -0.00 -0.00 -0.01 -0.02 -0.02 -0.02 -0.04 -0.05 -0.08 -0.08 -0.08 -0.10 -0.10 -0.06 -0.09 -0.06 -0.06 -0.01
-0.30 -0.44 -0.57 -0.41 -0.41 -0.35 -0.09 -0.00 0.02 0.02 0.07 0.05 0.08 0.08 0.25 0.68 0.53 0.53 0.42 0.41 0.41 0.45 0.27 0.20 0.20 0.16 0.09 0.05 0.03 0.03 0.02 0.01 0.01 0.01 0.01 0.05 0.05 0.05 0.01 0.00 0.00 0.00 0.00 0.00 0.00 0.00 0.00 0.00 0.00 0.00 -0.00 0.00 0.00 0.00 0.00 0.00 0.00 0.00 0.00 0.00 0.00 0.00 -0.00 -0.00 -0.00 -0.00 -0.00 -0.00 -0.00 -0.00 -0.01 -0.02 -0.02 -0.02 -0.03 -0.06 -0.04 -0.04 -0.06 -0.05 -0.05 -0.03 -0.04 -0.06 -0.06 -0.03
-0.15 -0.26 -0.41 -0.52 -0.52 -0.50 -0.34 -0.11 -0.04 -0.04 0.02 -0.03 -0.03 -0.03 -0.03 -0.03 0.13 0.13 0.16 0.17 0.17 0.26 0.29 0.20 0.20 0.15 0.12 0.06 0.03 0.03 0.00 0.00 0.00 0.00 0.01 0.08 0.02 0.02 0.01 0.02 0.02 0.01 0.01 0.02 0.02 0.01 0.00 0.00 0.00 0.00 0.00 0.00 0.00 0.00 0.00 -0.00 -0.00 0.00 0.00 0.00 0.00 0.00 -0.00 -0.00 -0.00 -0.00 -0.00 -0.00 -0.00 -0.00 -0.01 -0.02 -0.02 -0.02 -0.02 -0.03 -0.04 -0.04 -0.02 -0.02 -0.02 -0.02 -0.03 -0.03 -0.03 -0.00
0.07 0.01 -0.24 -0.36 -0.36 -0.32 -0.42 -0.27 -0.11 -0.11 -0.15 -0.13 -0.12 -0.12 -0.20 -0.16 -0.03 -0.03 0.03 0.10 0.10 0.12 0.15 0.14 0.14 0.13 0.12 0.14 0.11 0.11 0.04 0.02 0.01 0.01 0.01 0.08 0.08 0.08 0.03 0.05 0.05 0.03 0.03 0.03 0.03 0.03 0.00 0.00 0.00 0.00 0.00 0.00 -0.00 -0.00 -0.00 -0.00 -0.00 -0.00 0.00 -0.00 -0.00 0.00 -0.00 -0.00 -0.00 -0.00 -0.00 -0.00 -0.00 -0.00 -0.01 -0.01 -0.02 -0.02 -0.01 -0.03 -0.03 -0.03 -0.02 -0.01 -0.01 -0.01 -0.02 -0.01 -0.01 -0.01
0.12 0.08 0.05 0.02 0.02 0.02 -0.05 -0.15 -0.27 -0.27 -0.21 -0.24 -0.18 -0.18 -0.16 -0.14 -0.18 -0.18 -0.10 -0.03 -0.03 0.06 0.07 0.06 0.06 0.07 0.04 0.08 0.08 0.08 0.00 -0.00 0.01 0.01 0.04 0.05 0.03 0.03 0.02 0.00 0.00 -0.00 0.00 0.01 0.01 -0.02 -0.03 -0.02 -0.02 -0.00 0.00 -0.00 -0.00 -0.00 -0.00 -0.00 -0.00 -0.00 -0.00 -0.00 -0.00 -0.00 -0.00 -0.00 -0.00 -0.00 -0.00 0.00 -0.00 -0.00 -0.00 0.00 -0.00 -0.00 0.00 -0.00 -0.00 -0.00 0.00 -0.02 -0.02 -0.06 -0.06 -0.04 -0.04 -0.04
0.14 0.11 0.08 0.05 0.05 0.03 0.01 -0.04 -0.13 -0.13 -0.07 -0.12 -0.12 -0.12 -0.08 -0.09 -0.15 -0.15 -0.09 -0.02 -0.02 0.01 0.05 0.06 0.06 0.06 -0.01 0.00 0.01 0.01 0.01 -0.00 -0.01 -0.01 -0.00 0.07 0.05 0.05 0.02 0.05 0.05 0.03 0.00 0.02 0.02 0.01 -0.01 -0.01 -0.01 -0.01 -0.00 -0.00 -0.00 -0.00 -0.00 -0.00 -0.00 -0.00 -0.00 -0.00 -0.00 -0.00 -0.00 -0.00 -0.00 -0.00 -0.00 -0.00 0.00 0.00 0.00 0.00 0.00 0.00 0.00 0.00 0.01 0.01 0.02 0.01 0.01 -0.00 -0.04 -0.07 -0.07 -0.09
0.08 0.07 0.05 0.04 0.04 0.05 0.05 0.03 -0.01 -0.01 -0.01 -0.05 -0.08 -0.08 -0.07 -0.12 -0.19 -0.19 -0.14 -0.04 -0.04 -0.08 -0.05 -0.02 -0.02 -0.00 0.03 0.03 0.01 0.01 0.02 -0.00 -0.01 -0.01 0.01 0.14 0.12 0.12 0.08 0.06 0.06 0.04 0.03 0.04 0.04 0.04 0.04 0.02 0.02 0.00 -0.01 -0.00 -0.00 -0.00 -0.00 -0.00 -0.00 -0.00 -0.00 -0.00 -0.00 -0.00 -0.00 -0.00 -0.00 -0.00 -0.00 0.00 0.00 0.00 0.00 -0.00 0.00 0.00 0.00 0.01 0.02 0.02 0.03 0.02 0.02 -0.00 -0.03 -0.10 -0.10 -0.04
0.01 0.02 0.04 0.05 0.05 0.05 0.05 0.05 0.03 0.03 -0.02 -0.05 -0.09 -0.09 -0.11 -0.13 -0.19 -0.19 -0.22 -0.14 -0.14 -0.08 -0.05 -0.02 -0.02 0.00 0.06 0.09 0.04 0.04 0.03 -0.00 0.00 0.00 0.05 0.16 0.13 0.13 0.09 0.08 0.08 0.06 0.07 0.06 0.06 0.06 0.05 0.02 0.02 0.02 0.01 -0.01 -0.00 -0.00 -0.00 -0.00 -0.00 -0.00 -0.00 -0.00 -0.00 -0.00 -0.00 -0.00 -0.00 -0.00 -0.00 -0.00 0.00 0.00 0.00 -0.00 -0.00 -0.00 -0.00 0.01 0.02 0.02 0.02 0.03 0.03 0.02 0.02 0.00 0.00 0.03
-0.02 -0.00 0.01 0.03 0.03 0.03 0.02 0.02 0.01 0.01 -0.05 -0.06 -0.07 -0.07 -0.10 -0.09 -0.09 -0.09 -0.12 -0.19 -0.19 -0.13 -0.08 -0.04 -0.04 -0.02 0.01 0.05 0.11 0.11 0.11 0.07 0.09 0.09 0.13 0.21 0.25 0.25 0.17 0.08 0.08 0.10 0.09 0.07 0.07 0.06 0.05 0.03 0.03 0.03 0.02 0.02 0.01 0.01 0.00 -0.00 -0.00 -0.00 -0.00 -0.00 -0.00 -0.00 -0.00 -0.00 -0.00 -0.00 -0.00 -0.00 -0.00 -0.00 0.00 -0.00 -0.00 -0.00 -0.00 -0.00 0.00 0.00 0.02 0.08 0.08 0.05 0.06 0.03 0.03 0.04
-0.02 0.00 0.01 0.02 0.02 -0.03 -0.03 -0.03 -0.04 -0.04 -0.05 -0.06 -0.07 -0.07 -0.07 -0.05 -0.05 -0.05 -0.05 -0.12 -0.12 -0.10 -0.08 -0.03 -0.03 -0.02 0.13 0.15 0.21 0.21 0.03 0.03 0.06 0.06 0.10 0.10 0.15 0.15 0.21 0.07 0.07 0.04 0.08 0.04 0.04 0.04 0.05 0.05 0.05 0.02 0.02 0.02 0.02 0.02 0.01 0.00 0.00 -0.00 -0.00 -0.00 -0.00 -0.00 -0.00 -0.00 -0.00 -0.01 -0.01 -0.00 -0.00 -0.00 -0.00 -0.00 -0.01 -0.01 -0.01 -0.00 0.00 0.00 0.02 0.08 0.08 0.12 0.12 0.05 0.05 0.08
-0.04 -0.04 -0.02 -0.02 -0.02 -0.04 -0.04 -0.04 -0.04 -0.04 -0.05 -0.05 -0.05 -0.05 -0.05 -0.03 -0.03 -0.03 -0.04 -0.06 -0.06 0.04 0.03 0.07 0.07 0.10 -0.00 0.00 0.02 0.02 -0.00 -0.00 0.02 0.02 0.05 0.09 0.13 0.13 0.13 0.07 0.07 0.04 0.04 0.04 0.04 0.03 0.03 0.02 0.02 0.02 0.01 0.01 0.00 0.00 -0.00 -0.01 -0.01 -0.01 -0.00 -0.00 -0.00 -0.00 -0.00 -0.01 -0.01 -0.01 -0.01 -0.00 -0.00 -0.00 -0.00 -0.00 -0.00 -0.00 -0.01 -0.00 0.00 0.00 0.00 0.01 0.01 0.03 0.07 0.15 0.15 0.13
-0.06 -0.05 -0.05 -0.04 -0.04 -0.03 -0.03 -0.03 -0.04 -0.04 -0.02 -0.03 -0.03 -0.03 -0.04 0.06 0.08 0.08 0.09 0.08 0.08 0.01 -0.02 -0.02 -0.02 -0.00 -0.00 -0.01 -0.01 -0.01 -0.01 -0.00 0.01 0.01 0.04 0.09 0.11 0.11 0.12 0.11 0.11 0.06 0.04 0.07 0.07 0.06 0.04 0.03 0.03 -0.00 -0.00 -0.00 0.00 0.00 -0.00 -0.00 -0.00 -0.01 -0.01 -0.00 -0.00 -0.00 0.00 -0.00 -0.00 -0.01 -0.01 -0.01 -0.00 -0.00 -0.00 -0.00 -0.00 -0.00 -0.01 -0.00 0.01 0.01 -0.01 -0.00 -0.00 0.01 0.03 0.11 0.11 0.13
-0.06 -0.05 -0.04 -0.02 -0.02 -0.01 -0.02 -0.02 -0.01 -0.01 0.01 0.01 0.02 0.02 0.03 0.00 0.00 0.00 0.01 0.03 0.03 0.01 0.01 -0.02 -0.02 -0.02 0.00 0.02 0.01 0.01 0.02 0.02 0.03 0.03 0.04 0.06 0.09 0.09 0.12 0.14 0.14 0.11 0.09 0.11 0.11 0.10 0.09 0.05 0.05 0.03 0.01 0.00 -0.01 -0.01 -0.01 -0.01 -0.01 -0.01 -0.01 -0.01 -0.01 -0.00 0.00 -0.00 -0.00 -0.01 -0.01 -0.01 -0.00 -0.00 -0.00 -0.00 -0.01 -0.01 -0.01 -0.01 -0.01 -0.01 -0.00 -0.01 -0.01 -0.01 0.00 0.02 0.02 0.06
-0.04 -0.03 -0.02 -0.01 -0.01 -0.01 -0.01 0.00 0.00 0.00 0.01 0.01 0.01 0.01 -0.00 -0.02 -0.02 -0.02 -0.02 -0.00 -0.00 -0.00 0.00 -0.02 -0.02 -0.03 -0.02 0.00 0.02 0.02 0.01 0.02 0.03 0.03 0.05 0.06 0.08 0.08 0.12 0.12 0.12 0.12 0.13 0.15 0.15 0.12 0.10 0.06 0.06 0.04 0.02 0.01 -0.01 -0.01 -0.01 -0.01 -0.01 -0.00 -0.01 -0.02 -0.02 -0.00 0.00 -0.00 -0.00 -0.01 -0.01 -0.01 -0.00 -0.00 -0.00 -0.01 -0.01 -0.01 -0.01 -0.01 -0.01 -0.01 -0.00 -0.01 -0.01 -0.01 -0.00 0.02 0.02 0.04
-0.03 -0.02 -0.01 -0.00 -0.00 0.00 0.01 0.01 0.01 0.01 -0.01 -0.01 -0.02 -0.02 -0.02 -0.01 -0.02 -0.02 -0.02 -0.02 -0.02 -0.01 -0.01 -0.02 -0.02 -0.04 -0.03 -0.02 -0.00 -0.00 0.01 0.02 0.02 0.02 0.04 0.06 0.08 0.08 0.11 0.14 0.14 0.16 0.17 0.15 0.15 0.14 0.10 0.08 0.08 0.07 0.07 0.04 0.06 0.06 0.03 0.00 0.00 0.01 0.00 -0.01 -0.01 -0.00 -0.00 0.00 0.00 0.00 -0.01 -0.01 -0.00 -0.00 -0.00 -0.01 -0.01 -0.01 -0.01 -0.01 -0.00 -0.00 0.00 -0.00 -0.00 -0.01 -0.00 -0.00 -0.00 0.03
-0.03 -0.02 -0.01 -0.01 -0.01 -0.01 -0.01 -0.01 -0.01 -0.01 -0.01 -0.01 -0.01 -0.01 -0.01 -0.01 -0.01 -0.01 -0.01 -0.01 -0.01 -0.00 0.01 0.01 0.01 -0.00 0.03 0.01 -0.00 -0.00 0.03 0.03 0.03 0.03 0.04 0.08 0.09 0.09 0.11 0.16 0.16 0.19 0.23 0.28 0.28 0.28 0.15 0.12 0.12 0.13 0.09 0.07 0.08 0.08 0.04 0.02 0.02 0.02 0.01 0.00 0.00 0.02 0.01 0.00 0.00 0.00 -0.00 -0.00 -0.01 -0.01 -0.01 -0.01 -0.01 -0.01 -0.01 -0.00 -0.00 -0.00 -0.00 -0.00 -0.00 -0.00 0.00 0.01 0.01 0.07
-0.06 -0.03 -0.01 -0.02 -0.02 -0.01 -0.01 -0.01 -0.01 -0.01 0.00 0.01 0.00 0.00 -0.00 -0.01 -0.02 -0.02 -0.03 -0.01 -0.01 -0.00 0.01 0.02 0.02 0.03 0.05 0.05 0.03 0.03 0.03 0.04 0.05 0.05 0.07 0.07 0.10 0.10 0.12 0.14 0.14 0.19 0.28 0.38 0.38 0.25 0.17 0.14 0.14 0.09 0.07 0.08 0.08 0.08 0.04 0.03 0.03 0.03 0.02 0.01 0.01 0.02 0.02 0.01 0.01 0.01 0.01 0.00 -0.00 -0.00 -0.00 -0.00 -0.01 -0.01 -0.01 -0.01 -0.00 -0.00 -0.00 -0.00 -0.00 -0.00 0.00 0.02 0.02 0.09
-0.06 -0.04 -0.02 -0.03 -0.03 -0.03 -0.02 -0.02 -0.01 -0.01 -0.01 -0.01 -0.00 -0.00 -0.01 -0.02 -0.03 -0.03 -0.03 -0.02 -0.02 -0.01 -0.00 0.02 0.02 0.04 0.04 0.02 0.03 0.03 0.02 0.02 0.03 0.03 0.04 0.04 0.06 0.06 0.09 0.10 0.10 0.17 0.24 0.27 0.27 0.21 0.23 0.13 0.13 0.08 0.08 0.09 0.08 0.08 0.07 0.05 0.05 0.05 0.04 0.03 0.03 0.03 0.02 0.01 0.01 0.02 0.01 0.00 0.00 0.00 -0.00 -0.00 -0.01 -0.01 -0.01 -0.01 -0.01 -0.01 -0.00 -0.00 -0.00 -0.00 -0.00 0.00 0.00 0.02
-0.10 -0.08 -0.05 -0.05 -0.05 -0.04 -0.02 -0.01 -0.01 -0.01 -0.01 -0.02 -0.01 -0.01 -0.01 -0.03 -0.03 -0.03 -0.03 -0.02 -0.02 -0.01 -0.01 0.01 0.01 0.06 0.06 0.02 0.02 0.02 0.02 0.02 0.03 0.03 0.03 0.04 0.04 0.04 0.04 0.05 0.05 0.08 0.13 0.18 0.18 0.13 0.17 0.19 0.19 0.11 0.09 0.09 0.07 0.07 0.05 0.04 0.04 0.05 0.04 0.03 0.03 0.04 0.03 0.02 0.02 0.02 0.01 0.00 0.00 0.00 0.00 0.00 -0.01 -0.01 -0.02 -0.01 -0.01 -0.01 -0.01 -0.00 -0.00 -0.00 -0.00 0.00 0.00 0.01
-0.12 -0.10 -0.07 -0.03 -0.03 -0.02 -0.01 -0.01 -0.03 -0.03 -0.02 -0.02 -0.02 -0.02 -0.02 -0.03 -0.03 -0.03 -0.03 -0.03 -0.03 -0.00 0.01 0.01 0.01 0.08 0.09 0.06 0.04 0.04 0.02 0.02 0.02 0.02 0.03 0.04 0.04 0.04 0.05 0.06 0.06 0.07 0.09 0.12 0.12 0.12 0.12 0.12 0.12 0.17 0.19 0.13 0.06 0.06 0.04 0.04 0.04 0.06 0.04 0.04 0.04 0.04 0.04 0.04 0.04 0.02 0.01 0.01 0.01 0.01 0.01 0.00 -0.01 -0.01 -0.02 -0.01 -0.01 -0.01 -0.00 -0.00 -0.00 -0.00 0.00 -0.00 -0.00 0.00
-0.10 -0.07 -0.05 -0.04 -0.04 -0.04 -0.03 -0.03 -0.05 -0.05 -0.04 -0.04 -0.03 -0.03 -0.02 -0.03 -0.03 -0.03 -0.02 -0.01 -0.01 0.01 0.03 0.04 0.04 0.02 0.02 0.01 0.02 0.02 0.03 0.03 0.02 0.02 0.03 0.04 0.04 0.04 0.05 0.07 0.07 0.08 0.08 0.10 0.10 0.10 0.09 0.11 0.11 0.20 0.20 0.22 0.11 0.11 0.05 0.03 0.03 0.04 0.05 0.04 0.04 0.04 0.03 0.02 0.02 0.01 0.01 0.01 0.01 0.01 0.01 -0.00 -0.03 -0.03 -0.02 -0.03 -0.02 -0.02 -0.01 -0.00 -0.00 -0.00 -0.00 -0.00 -0.00 0.00
-0.07 -0.05 -0.04 -0.05 -0.05 -0.05 -0.04 -0.04 -0.05 -0.05 -0.04 -0.03 -0.03 -0.03 -0.05 -0.05 -0.04 -0.04 -0.01 0.01 0.01 -0.00 0.00 0.01 0.01 0.02 0.01 0.01 0.01 0.01 0.05 0.04 0.03 0.03 0.04 0.05 0.05 0.05 0.05 0.06 0.06 0.07 0.09 0.09 0.09 0.10 0.10 0.09 0.09 0.10 0.13 0.20 0.11 0.11 0.04 0.03 0.03 0.03 0.03 0.04 0.04 0.01 0.01 0.01 0.01 0.01 0.01 0.01 0.01 0.01 0.01 0.00 -0.02 -0.02 -0.03 -0.03 -0.03 -0.03 -0.01 -0.00 -0.00 -0.00 -0.00 -0.00 -0.00 0.00
-0.09 -0.06 -0.05 -0.07 -0.07 -0.06 -0.05 -0.05 -0.04 -0.04 -0.04 -0.03 -0.04 -0.04 -0.05 -0.06 -0.06 -0.06 -0.02 -0.01 -0.01 -0.00 0.01 0.01 0.01 0.08 0.08 0.05 0.02 0.02 0.06 0.06 0.06 0.06 0.05 0.04 0.05 0.05 0.06 0.08 0.08 0.10 0.11 0.10 0.10 0.13 0.13 0.10 0.10 0.07 0.07 0.12 0.09 0.09 0.04 0.03 0.03 0.02 0.02 0.03 0.03 0.01 -0.00 -0.01 -0.01 0.00 0.01 0.01 0.01 0.01 0.00 -0.00 -0.01 -0.01 -0.02 -0.04 -0.02 -0.02 -0.01 -0.01 -0.01 -0.00 -0.00 -0.00 -0.00 -0.00
-0.11 -0.08 -0.09 -0.08 -0.08 -0.06 -0.04 -0.04 -0.04 -0.04 -0.03 -0.03 -0.03 -0.03 -0.01 -0.02 -0.03 -0.03 -0.04 -0.08 -0.08 -0.04 -0.00 0.03 0.03 0.04 0.05 0.04 0.04 0.04 0.03 0.04 0.04 0.04 0.04 0.05 0.07 0.07 0.08 0.09 0.09 0.14 0.13 0.12 0.12 0.12 0.14 0.12 0.12 0.05 0.05 0.04 0.03 0.03 0.06 0.05 0.05 0.03 0.03 0.02 0.02 0.01 0.01 -0.00 -0.00 0.00 0.01 0.01 0.00 0.00 0.00 -0.00 -0.00 -0.00 -0.01 -0.03 -0.04 -0.04 -0.02 -0.01 -0.01 -0.01 -0.00 -0.00 -0.00 -0.00